Regional Weather Roundup
Issued by NWS

Home | Current Version | Previous Version | Graphics & Text | Print | Product List | Glossary On
Versions: 1 2 3 4 5 6 7 8 9 10 11 12 13 14 15 16 17 18 19 20 21 22 23 24 25 26 27 28 29 30 31 32 33 34 35 36 37 38 39 40 41 42 43 44 45 46 47 48 49 50
000
ASUS43 KMKX 251400
RWRWI

WISCONSIN REGIONAL WEATHER ROUNDUP
NATIONAL WEATHER SERVICE MILWAUKEE/SULLIVAN WI
800 AM CST THU DEC 25 2014

NOTE: "FAIR" INDICATES FEW OR NO CLOUDS BELOW 12,000 FEET WITH NO
SIGNIFICANT WEATHER AND/OR OBSTRUCTIONS TO VISIBILITY.

WIZ001-002-006>008-014>016-023>028-251500-
NORTHWEST WISCONSIN

CITY           SKY/WX    TMP DP  RH WIND       PRES   REMARKS
SUPERIOR ARPT  CLOUDY    32  29  90 SW8       29.60S WCI  25
ASHLAND        CLOUDY    32  28  85 SW12      29.62R WCI  23
HAYWARD        CLOUDY    31  26  82 SW10      29.63R WCI  22
SIREN          CLOUDY    31  28  88 SW9       29.65R WCI  23
CUMBERLAND     CLOUDY    30  28  93 SW9       29.64S WCI  22
RICE LAKE      CLOUDY    31  27  86 S12       29.67R WCI  22
CHETEK         CLOUDY    30  28  90 S8        29.67R WCI  23
LADYSMITH      CLOUDY    32  29  88 S7        29.66S WCI  25
EAU CLAIRE     CLOUDY    30  25  81 SW12      29.70R WCI  20
MENOMONIE      CLOUDY    31  27  86 S9        29.69R WCI  23
NEW RICHMOND   CLOUDY    30  28  94 SW10      29.68R WCI  21
OSCEOLA        CLOUDY    31  30  96 S7        29.70R WCI  24
$$

WIZ003>005-009-010-017-018-251500-
NORTH CENTRAL WISCONSIN

CITY           SKY/WX    TMP DP  RH WIND       PRES   REMARKS
MANITOWISH WTR CLOUDY    29  28  96 SW10      29.61R WCI  20
ARBOR VITAE    CLOUDY    32  29  90 SW8       29.62R WCI  25
WOODRUFF       CLOUDY    32  29  90 SW8       29.62R WCI  25
RHINELANDER    CLOUDY    29  26  89 SW12      29.64R WCI  19
EAGLE RIVER    CLOUDY    30  28  94 SW13      29.62R WCI  20
LAND O LAKES   CLOUDY    31  28  91 W8        29.61R WCI  23
PHILLIPS       CLOUDY    29  27  91 SW13      29.63R WCI  19
TOMAHAWK       CLOUDY    29  27  90 CALM      29.66R
MEDFORD        CLOUDY    29  27  90 SW7       29.66S WCI  22
MERRILL        CLOUDY    31  28  88 W9        29.67R WCI  22
$$

WIZ029-030-035-036-043>047-251500-
CENTRAL WISCONSIN

CITY           SKY/WX    TMP DP  RH WIND       PRES   REMARKS
WAUSAU         CLOUDY    31  27  85 SW9       29.68R WCI  23
MOSINEE        CLOUDY    30  28  93 SW8       29.70R WCI  23
MARSHFIELD     CLOUDY    31  27  85 SW12      29.70R WCI  22
STEVENS POINT  CLOUDY    30  26  86 SW8G16    29.71R WCI  22
WAUPACA        CLOUDY    34  29  82 SW9       29.73R WCI  27
WAUTOMA        NOT AVBL
WISC RAPIDS    CLOUDY    31  25  78 SW9       29.74R WCI  23
CAMP DOUGLAS   NOT AVBL
$$

WIZ011>013-019>022-031-037>040-048>050-251500-
NORTHEAST WISCONSIN

CITY           SKY/WX    TMP DP  RH WIND       PRES   REMARKS
ANTIGO         CLOUDY    29  27  90 W13G22    29.66R WCI  19
SHAWANO        CLOUDY    35  30  82 W10       29.70R WCI  27
OCONTO         CLOUDY    32  31  93 SW7       29.71R WCI  26
STURGEON BAY   CLOUDY    32  27  80 SW12      29.72R WCI  23
GREEN BAY      CLOUDY    34  30  85 SW9       29.73R WCI  27
MANITOWOC      NOT AVBL
APPLETON       CLOUDY    34  30  86 SW10      29.73R WCI  26
CLINTONVILLE   CLOUDY    32  30  93 W8        29.70S WCI  25
OSHKOSH        CLOUDY    34  27  75 VRB5      29.75R WCI  30
$$

WIZ032>034-041-042-053>061-251500-
SOUTHWEST WISCONSIN

CITY           SKY/WX    TMP DP  RH WIND       PRES   REMARKS
LA CROSSE      CLOUDY    33  27  78 S6        29.76R WCI  28
SPARTA         CLOUDY    31  26  83 SW5       29.76R WCI  26
VIROQUA        CLOUDY    30  30 100 SW9       29.75R WCI  21
BOSCOBEL       CLOUDY    33  27  78 SW13G18   29.81R WCI  24
PRAIRIE DU CHI CLOUDY    32  27  80 S3        29.80R
PLATTEVILLE    CLOUDY    32  29  88 SW12      29.81R WCI  23
$$

WIZ056-057-062-063-064-067-068-251500-
SOUTH CENTRAL WISCONSIN

CITY           SKY/WX    TMP DP  RH WIND       PRES   REMARKS
REEDSBURG      CLOUDY    30  26  85 SW9       29.76S WCI  22
BARABOO/DELLS  CLOUDY    31  27  84 SW12      29.76R WCI  22
LONE ROCK      NOT AVBL
MINERAL POINT  CLOUDY    32  30  93 SW12      29.80R WCI  23
MADISON        CLOUDY    32  26  78 VRB6      29.80R WCI  26
MIDDLETON      CLOUDY    33  27  81 SW9       29.80R WCI  25
WATERTOWN      CLOUDY    32  29  90 SW12G17   29.79R WCI  23
MONROE         CLOUDY    32  30  93 SW12      29.81R WCI  23
JANESVILLE     CLOUDY    34  28  80 MISG      29.83R
$$

WIZ051-052-058>065-066-070>072-251500-
SOUTHEAST WISCONSIN

CITY           SKY/WX    TMP DP  RH WIND       PRES   REMARKS
MILWAUKEE      CLOUDY    34  27  75 W13       29.83R WCI  25
WAUKESHA       CLOUDY    30  27  86 SW12G17   29.82R WCI  21
MILWAUKEE/TIMM CLOUDY    34  27  75 W10       29.82R WCI  26
RACINE         CLOUDY    34  27  75 SW15G21   29.85R WCI  24
BURLINGTON     CLOUDY    32  28  84 SW13G22   29.83R WCI  22
KENOSHA        CLOUDY    34  29  82 SW17G25   29.84R WCI  23
FOND DU LAC    CLOUDY    34  28  79 SW10      29.77R WCI  26
SHEBOYGAN      CLOUDY    34  28  79 SW12      29.77R WCI  25
WEST BEND      CLOUDY    32  28  86 SW12      29.78R WCI  23
JUNEAU         CLOUDY    32  28  84 SW15      29.79R WCI  22
$$

LSZ147-162-251500-
LAKE SUPERIOR

STATION/POSITION TIME  TEMP    WIND        PRES    WAVE
                       AIR SEA DIR/SP/G            HT/PER
                 (UTC) (F)     (DEG/KT/KT) (MB)    (FT/S)
DEVILS ISLAND    1300   34     230/ 18/ 21 1002.1R
PORT WING        1300   33     210/  9/ 13 1002.4R
SAXON HARBOR     1300   34     190/  6/ 13 1002.4R
$$

LMZ867-665-643>646-251500-
LAKE MICHIGAN

STATION/POSITION TIME  TEMP    WIND        PRES    WAVE
                       AIR SEA DIR/SP/G            HT/PER
                 (UTC) (F)     (DEG/KT/KT) (MB)    (FT/S)
CHAMBERS ISLAND  1300   34     210/  7/ 13 1005.1R
NORTHPORT PIER   1300   33     240/  4/  9 1004.7R
SISTER BAY       1313          220/ 11/ 14   N/A
ALGOMA LAKESHORE 1315          290/ 11/ 17   N/A
KEWAUNEE LAKESHO 1300   33     240/  7/ 12 1005.5R
SHEBOYGAN LAKESH 1300   36 37  240/ 13/ 15 1008.4R
PORT WASHINGTON  1300   36     260/  9/ 14 1009.1R
MILWAUKEE LAKESH 1300   35     260/ 12/ 19   N/A
KENOSHA   LAKESH 1300   35     240/ 10/ 16 1010.2R
$$

TC  - TEMPERATURE IN CELSIUS
VSB - VISIBILITY IN STATUTE MILES
WCI - WIND CHILL INDEX
HX  - HEAT INDEX



USA.gov is the U.S. government's official web portal to all federal, state and local government web resources and services.